Regional Weather Roundup
Issued by NWS Midland/Odessa, TX

Home | Current Version | Previous Version | Text Only | Print | Product List | Glossary On
Versions: 1 2 3 4 5 6 7 8 9 10 11 12 13 14 15 16 17 18 19 20 21 22 23 24 25 26 27 28 29 30 31 32 33 34 35 36 37 38 39 40 41 42 43 44 45 46 47 48 49 50
000
ASUS44 KMAF 051310
RWRMAF
MIDLAND AREA WEATHER ROUNDUP
NATIONAL WEATHER SERVICE MIDLAND TX
800 AM CDT WED AUG 05 2015

...IN SOUTHWEST TEXAS AND SOUTHEAST NEW MEXICO...

CITY           SKY/WX    TMP DP  RH WIND       PRES   REMARKS
ALPINE         CLEAR     68  59  73 SW7       30.20S
ANDREWS        FAIR      74  63  68 S7        30.04S
ARTESIA        CLEAR     72  61  68 S7        30.05S
BIG SPRING     SUNNY     75  62  62 S14       30.04S
CARLSBAD       CLEAR     73  56  54 N7        30.02R
DRYDEN           N/A     79  70  74 VRB5      30.01R
FORT STOCKTON  CLEAR     76  59  55 SE9       30.03R
GUAD PASS      CLEAR     73  54  51 W13       30.22R
HOBBS          CLEAR     70  64  83 S5        30.08R
MARFA          CLEAR     61  57  88 N3        30.19S
MIDLAND AIRPK  SUNNY     79  61  52 S10       30.03S
MIDLAND INTL   CLEAR     78  61  55 S9        30.02S
ODESSA         PTCLDY    79  62  56 S16       30.04R
PECOS          CLEAR     73  58  59 CALM      29.99R
PRESIDIO       FAIR      78  61  57 MISG      30.04R
SEMINOLE       CLEAR     74  62  65 SW8       30.05S
SNYDER         SUNNY     75  63  66 S9        30.02R
WINK           CLEAR     78  61  55 SE7       30.00R
$$
...OTHER STATIONS IN TEXAS...

CITY           SKY/WX    TMP DP  RH WIND       PRES   REMARKS
ABILENE        SUNNY     80  68  66 S12       29.98R
AMARILLO       SUNNY     75  62  64 SW17G26   30.02R
AUSTIN         MOSUNNY   78  75  90 S9        29.99S
BROWNSVILLE    SUNNY    N/A N/A N/A S7        29.97R
CORPUS CHRISTI MOSUNNY   80  78  94 S7        29.97S
DALLAS FTW     MOSUNNY   83  71  67 S16       29.94S
DEL RIO        SUNNY     79  72  79 E10       29.97R
EL PASO        PTCLDY    76  56  49 SE7       30.08R
HOUSTON INT    MOSUNNY   82  77  84 SW5       30.00R
LUBBOCK        MOSUNNY   76  62  62 SW9       30.03R
SAN ANGELO     SUNNY     79  71  76 S13       30.01R
SAN ANTONIO    MOSUNNY   80  73  79 S7        30.01S
WACO           SUNNY     81  73  76 S14       29.98R
WICHITA FALLS  NOT AVBL
$$
...OTHER LOCATIONS IN NEW MEXICO...

CITY           SKY/WX    TMP DP  RH WIND       PRES   REMARKS
ALAMAGORDO     PTCLDY    68  48  49 NE7       30.11S
ALBUQUERQUE    PTCLDY    64  44  48 E3        30.22R
CANNON AFB     CLEAR     71  59  65 W7        30.08S
CLOVIS         CLEAR     64  59  82 SW5       30.09S
HOLLOMAN AFB   PTCLDY    69  47  45 NE3       30.09R
ROSWELL        CLEAR     69  58  67 CALM      30.05R
RUIDOSO          N/A    N/A N/A N/A MISG        N/A
SANTA FE       CLEAR     61  41  47 N13       30.27R
TRUTH OR CONSE PTCLDY    70  51  51 CALM      30.15R
TUCUMCARI      CLEAR     70  58  65 W7        30.06R
$$




USA.gov is the U.S. government's official web portal to all federal, state and local government web resources and services.